Location: Newark
(47.5989°N, 4.6950°E)
Time: 19:04:41
(UTC+00:00)

Envisat - Pass Details

Date: 16 November 2019
Orbit: 764 x 766 km, 98.1° (Epoch: 08 December)

Event Time Altitude Azimuth Distance (km) Brightness Sun altitude
Rises 19:08:12 0° 216° (SW) 3,222 6.6 -30.9°
Reaches altitude 10° 19:11:38 10° 241° (WSW) 2,302 6.1 -31.5°
Maximum altitude 19:14:17 14° 273° (W) 2,029 6.0 -31.9°
Drops below altitude 10° 19:16:57 10° 305° (NW) 2,311 6.2 -32.4°
Sets 19:20:26 0° 330° (NNW) 3,244 6.7 -32.9°
